TimeCDT,TemperatureF,Dew PointF,Humidity,Sea Level PressureIn,VisibilityMPH,Wind Direction,Wind SpeedMPH,Gust SpeedMPH,PrecipitationIn,Events,Conditions,WindDirDegrees,DateUTC
12:13 AM,53.6,39.2,58,29.28,10.0,SSE,5.8,-,N/A,,Clear,150,2012-10-17 05:13:00
12:34 AM,53.6,39.2,58,29.29,10.0,SSW,4.6,-,N/A,,Clear,200,2012-10-17 05:34:00
12:54 AM,55.4,39.2,54,29.30,10.0,South,6.9,-,N/A,,Clear,190,2012-10-17 05:54:00
1:13 AM,55.4,42.8,63,29.29,10.0,South,6.9,-,N/A,Rain,Light Rain,170,2012-10-17 06:13:00
1:34 AM,53.6,44.6,72,29.27,10.0,Calm,Calm,-,N/A,Rain,Light Rain,0,2012-10-17 06:34:00
1:54 AM,53.6,44.6,72,29.25,10.0,SE,6.9,-,N/A,,Mostly Cloudy,130,2012-10-17 06:54:00
2:14 AM,53.6,44.6,72,29.25,10.0,SSE,6.9,-,N/A,,Mostly Cloudy,150,2012-10-17 07:14:00
2:34 AM,55.4,44.6,67,29.25,10.0,SSE,8.1,-,N/A,,Overcast,150,2012-10-17 07:34:00
2:54 AM,55.4,44.6,67,29.20,10.0,East,8.1,-,N/A,,Overcast,90,2012-10-17 07:54:00
3:14 AM,55.4,44.6,67,29.19,10.0,ESE,5.8,-,N/A,,Mostly Cloudy,110,2012-10-17 08:14:00
3:34 AM,55.4,44.6,67,29.18,10.0,ESE,5.8,-,N/A,,Overcast,110,2012-10-17 08:34:00
3:54 AM,55.4,44.6,67,29.17,10.0,East,6.9,-,N/A,,Overcast,90,2012-10-17 08:54:00
4:13 AM,53.6,44.6,72,29.16,10.0,East,6.9,-,N/A,Rain,Light Rain,80,2012-10-17 09:13:00
4:34 AM,53.6,44.6,72,29.16,10.0,East,3.5,-,N/A,Rain,Light Rain,80,2012-10-17 09:34:00
4:54 AM,53.6,46.4,77,29.16,10.0,Calm,Calm,-,N/A,Rain,Light Rain,0,2012-10-17 09:54:00
5:13 AM,51.8,46.4,82,29.13,10.0,NE,6.9,-,0.01,Rain,Light Rain,50,2012-10-17 10:13:00
5:34 AM,51.8,46.4,82,29.13,10.0,NNE,5.8,-,0.02,,Mostly Cloudy,30,2012-10-17 10:34:00
5:54 AM,51.8,46.4,82,29.12,10.0,NNE,3.5,-,0.02,,Mostly Cloudy,20,2012-10-17 10:54:00
6:13 AM,51.8,46.4,82,29.10,10.0,North,6.9,-,N/A,,Mostly Cloudy,350,2012-10-17 11:13:00
6:34 AM,51.8,46.4,82,29.13,10.0,NW,17.3,-,N/A,,Scattered Clouds,310,2012-10-17 11:34:00
6:54 AM,53.6,46.4,77,29.13,10.0,NNW,15.0,-,N/A,,Mostly Cloudy,330,2012-10-17 11:54:00
7:13 AM,53.6,46.4,77,29.14,10.0,NW,15.0,-,N/A,,Mostly Cloudy,320,2012-10-17 12:13:00
7:34 AM,53.6,50.0,88,29.17,10.0,NW,17.3,20.7,N/A,,Overcast,310,2012-10-17 12:34:00
7:54 AM,51.8,48.2,88,29.18,7.0,NW,24.2,34.5,0.01,Rain,Rain,320,2012-10-17 12:54:00
8:13 AM,51.8,46.4,82,29.19,10.0,NW,24.2,35.7,0.02,Rain,Light Rain,310,2012-10-17 13:13:00
8:34 AM,51.8,46.4,82,29.20,5.0,NW,19.6,28.8,0.03,Rain,Light Rain,310,2012-10-17 13:34:00
8:54 AM,51.8,46.4,82,29.20,10.0,WNW,20.7,28.8,0.03,,Overcast,300,2012-10-17 13:54:00
9:13 AM,50.0,46.4,87,29.20,10.0,WNW,20.7,25.3,N/A,,Drizzle,300,2012-10-17 14:13:00
9:34 AM,51.8,46.4,82,29.21,10.0,WNW,18.4,24.2,N/A,Rain,Light Rain,290,2012-10-17 14:34:00
9:54 AM,51.8,46.4,82,29.21,10.0,WNW,21.9,26.5,N/A,Rain,Light Rain,290,2012-10-17 14:54:00
10:13 AM,51.8,46.4,82,29.21,10.0,West,17.3,23.0,N/A,Rain,Light Rain,280,2012-10-17 15:13:00
10:34 AM,50.0,42.8,76,29.23,10.0,WNW,29.9,36.8,N/A,Rain,Light Rain,290,2012-10-17 15:34:00
10:54 AM,50.0,42.8,76,29.23,10.0,West,28.8,34.5,N/A,,Mostly Cloudy,280,2012-10-17 15:54:00
11:13 AM,50.0,42.8,76,29.24,10.0,WNW,24.2,34.5,N/A,,Mostly Cloudy,290,2012-10-17 16:13:00
11:54 AM,51.8,42.8,71,29.24,10.0,WNW,20.7,29.9,N/A,,Scattered Clouds,290,2012-10-17 16:54:00
12:13 PM,53.6,42.8,67,29.25,10.0,West,21.9,25.3,N/A,,Mostly Cloudy,280,2012-10-17 17:13:00
12:34 PM,53.6,42.8,67,29.25,10.0,West,23.0,28.8,N/A,,Mostly Cloudy,270,2012-10-17 17:34:00
12:53 PM,51.8,42.8,71,29.25,10.0,WNW,25.3,-,N/A,,Mostly Cloudy,290,2012-10-17 17:53:00
1:14 PM,53.6,42.8,67,29.24,10.0,West,25.3,29.9,N/A,,Overcast,280,2012-10-17 18:14:00
1:34 PM,51.8,42.8,71,29.25,10.0,West,21.9,29.9,N/A,,Overcast,280,2012-10-17 18:34:00
1:53 PM,51.8,42.8,71,29.24,10.0,West,18.4,26.5,N/A,,Overcast,280,2012-10-17 18:53:00
2:14 PM,51.8,42.8,71,29.25,7.0,WNW,19.6,28.8,N/A,,Overcast,290,2012-10-17 19:14:00
2:34 PM,50.0,42.8,76,29.25,10.0,West,19.6,-,N/A,,Overcast,280,2012-10-17 19:34:00
2:53 PM,48.2,42.8,82,29.26,10.0,WNW,23.0,32.2,N/A,,Overcast,290,2012-10-17 19:53:00
3:14 PM,48.2,39.2,71,29.27,10.0,WNW,26.5,32.2,N/A,,Overcast,290,2012-10-17 20:14:00
3:34 PM,48.2,39.2,71,29.27,7.0,WNW,23.0,28.8,N/A,,Overcast,290,2012-10-17 20:34:00
3:53 PM,48.2,39.2,71,29.29,10.0,West,23.0,29.9,N/A,,Overcast,280,2012-10-17 20:53:00
4:14 PM,48.2,39.2,71,29.29,10.0,WNW,25.3,28.8,N/A,,Overcast,290,2012-10-17 21:14:00
4:34 PM,48.2,39.2,71,29.29,10.0,WNW,24.2,29.9,N/A,,Overcast,290,2012-10-17 21:34:00
4:54 PM,48.2,39.2,71,29.30,10.0,West,25.3,32.2,N/A,,Overcast,280,2012-10-17 21:54:00
5:14 PM,46.4,39.2,76,29.30,10.0,West,17.3,28.8,N/A,,Overcast,280,2012-10-17 22:14:00
5:33 PM,46.4,39.2,76,29.31,10.0,WNW,24.2,32.2,N/A,,Overcast,290,2012-10-17 22:33:00
5:54 PM,44.6,39.2,81,29.31,5.0,West,17.3,24.2,N/A,,Haze,280,2012-10-17 22:54:00
6:14 PM,44.6,39.2,81,29.32,10.0,West,19.6,-,N/A,,Overcast,280,2012-10-17 23:14:00
6:54 PM,44.6,39.2,81,29.32,7.0,WNW,21.9,27.6,0.02,Rain,Light Rain,290,2012-10-17 23:54:00
7:14 PM,44.6,39.2,81,29.33,10.0,WNW,21.9,25.3,N/A,,Light Drizzle,290,2012-10-18 00:14:00
7:33 PM,44.6,39.2,81,29.34,10.0,WNW,19.6,-,N/A,,Overcast,290,2012-10-18 00:33:00
7:53 PM,44.6,39.2,81,29.35,10.0,WNW,18.4,26.5,N/A,,Overcast,290,2012-10-18 00:53:00
8:14 PM,44.6,39.2,81,29.35,10.0,WNW,17.3,20.7,N/A,,Overcast,290,2012-10-18 01:14:00
8:33 PM,44.6,37.4,76,29.35,10.0,WNW,18.4,23.0,N/A,,Overcast,300,2012-10-18 01:33:00
8:53 PM,44.6,37.4,76,29.35,10.0,WNW,18.4,25.3,N/A,,Overcast,300,2012-10-18 01:53:00
9:14 PM,44.6,37.4,76,29.35,10.0,WNW,21.9,31.1,N/A,,Overcast,300,2012-10-18 02:14:00
9:34 PM,44.6,37.4,76,29.35,10.0,WNW,18.4,24.2,N/A,,Overcast,290,2012-10-18 02:34:00
9:53 PM,44.6,37.4,76,29.35,10.0,WNW,21.9,27.6,N/A,,Overcast,290,2012-10-18 02:53:00
10:14 PM,44.6,37.4,76,29.35,10.0,WNW,17.3,-,N/A,,Overcast,290,2012-10-18 03:14:00
10:34 PM,44.6,37.4,76,29.34,10.0,WNW,19.6,26.5,N/A,,Overcast,300,2012-10-18 03:34:00
10:53 PM,44.6,37.4,76,29.33,10.0,WNW,18.4,33.4,N/A,,Overcast,300,2012-10-18 03:53:00
11:14 PM,44.6,37.4,76,29.32,10.0,WNW,20.7,25.3,N/A,,Overcast,290,2012-10-18 04:14:00
11:34 PM,44.6,37.4,76,29.31,10.0,WNW,17.3,21.9,N/A,,Overcast,290,2012-10-18 04:34:00
11:53 PM,44.6,37.4,76,29.31,10.0,WNW,23.0,31.1,N/A,,Overcast,300,2012-10-18 04:53:00